User: anonymous   Login
Location: Unspecified
(0.0000°N, 0.0000°E)
Time: 06:08:49
(UTC+00:00)
Language:

BEESAT - Orbit

View from above orbital plane
View from above orbital plane
View from above satellite
View from above satellite

Ground track
Ground track

The orbit data is extracted from the following two-line orbital elements,

1 35933U 09051C   17296.61787938 +.00000194 +00000-0 +54770-4 0  9993
2 35933 098.5182 078.9565 0005117 220.9259 139.1555 14.56185012429031
Epoch (UTC): 23 October 2017 14:49:44
Eccentricity: 0.0005117
inclination: 98.5182°
perigee height: 702 km
apogee height: 709 km
right ascension of ascending node: 78.9565°
argument of perigee: 220.9259°
revolutions per day: 14.56185012
mean anomaly at epoch: 139.1555°
orbit number at epoch: 42903

The dashed part of the orbit path shows where the satellite is in the earth's shadow,  

DLR